Theta_e
313 312 311 311 311 311 311 311 311 312 312 313 313 313 313 312 313 314 315 312 310 310 310 311 311 311 311 310 310 310 310 310 313 315 318 315 310 311 311 312 319 321 319 323 324 325 326 326 329 331 335 339 339 346 353 352 353 353 358 358 351 352 355 357 360 356 356 357 353 351 351 352 351 350 348 347 349 348 348 347 347 347 347 349 350 350 352 351
314 313 313 311 311 311 311 311 312 312 312 312 312 312 311 310 311 312 312 310 310 310 310 310 310 311 310 310 310 311 312 313 316 320 323 319 315 311 311 314 320 321 319 322 323 324 324 324 328 332 336 339 339 347 354 353 353 355 359 358 353 357 358 358 360 360 360 356 352 351 350 352 352 350 348 350 351 349 349 349 349 349 349 350 351 351 351 351
314 314 313 312 311 311 311 312 312 312 312 312 312 312 310 309 309 309 309 309 309 309 310 310 310 310 309 310 311 313 315 317 323 327 326 324 317 310 311 316 321 322 319 320 321 321 321 324 329 333 337 340 341 348 353 353 354 355 357 359 358 358 357 358 359 362 362 355 352 351 350 352 351 348 348 351 351 350 351 350 349 351 349 348 350 352 351 351
313 314 314 312 311 311 311 312 312 313 313 313 312 311 309 308 308 308 308 308 308 309 309 309 310 309 310 311 314 316 317 323 325 325 326 323 315 311 313 318 322 321 319 320 321 321 320 326 330 333 340 342 342 347 350 352 355 356 356 359 358 356 357 359 358 361 361 355 352 350 350 351 349 347 348 351 351 351 351 348 349 351 349 348 348 351 352 351
313 314 314 312 311 311 311 312 312 313 313 313 313 312 310 308 307 308 307 308 308 309 309 309 310 310 310 312 317 318 320 325 320 323 325 319 313 313 315 320 321 318 318 320 321 321 322 328 330 332 340 343 343 346 348 351 355 357 357 358 357 355 358 360 357 360 359 354 352 351 351 350 348 348 349 351 351 351 349 347 347 349 349 349 349 351 352 351
313 314 314 312 311 312 312 312 312 313 313 313 314 313 312 310 308 307 307 308 308 309 309 309 310 310 312 314 319 318 319 319 318 320 321 316 313 316 318 320 320 317 316 318 319 321 323 326 330 333 338 339 340 343 349 353 354 356 358 357 357 355 358 359 358 360 356 354 354 352 351 349 349 350 350 349 348 348 347 345 347 349 350 351 351 351 350 350
313 314 314 312 311 312 312 312 312 313 313 313 314 314 314 313 311 309 308 308 309 309 310 310 310 311 313 316 318 318 317 318 322 322 321 315 314 318 319 319 320 317 316 316 318 320 321 324 330 332 334 336 335 338 349 355 352 355 357 357 357 356 357 356 357 358 356 357 358 354 351 351 350 351 348 347 346 347 346 347 349 351 352 353 352 351 350 351
313 314 313 312 311 312 312 312 313 313 313 313 313 313 313 314 314 312 310 309 309 310 310 310 310 311 314 316 318 318 319 322 326 326 321 315 316 319 318 319 320 318 315 315 317 318 321 325 328 331 336 337 333 340 351 354 354 356 357 357 356 355 356 354 355 356 356 357 356 353 353 354 352 349 348 347 347 346 347 348 349 350 351 352 350 350 352 353
313 314 314 312 311 312 312 313 313 313 313 313 313 313 313 313 314 314 313 311 310 310 310 310 310 312 316 317 318 320 323 324 326 326 322 318 317 319 318 317 317 316 314 314 315 317 322 325 326 330 334 333 334 345 352 354 356 357 356 356 356 355 355 355 356 356 357 358 357 355 356 355 351 347 347 347 347 347 347 347 348 349 349 349 349 349 352 352
312 313 314 313 312 312 312 313 313 313 313 313 312 313 312 312 313 314 314 313 311 311 310 310 311 313 316 317 318 322 324 324 325 324 323 320 317 318 319 319 316 315 315 314 313 317 321 324 325 327 328 332 344 351 354 355 355 356 355 355 356 356 356 356 356 355 357 359 357 356 356 355 350 349 349 347 347 346 347 348 347 348 349 348 348 349 351 352
312 313 314 313 312 312 313 313 313 313 313 312 312 312 312 312 312 313 314 313 312 311 310 311 311 313 317 316 315 321 324 321 322 323 323 321 319 318 319 320 319 317 316 314 314 315 319 323 324 327 328 338 352 355 354 353 354 354 354 355 355 356 356 356 356 354 359 360 355 355 356 354 350 350 350 347 347 347 348 349 348 349 349 348 348 348 350 351
312 313 314 313 313 312 313 313 313 313 313 312 312 312 312 313 313 313 313 313 313 312 311 311 312 316 318 317 316 319 320 319 321 323 323 321 319 318 319 320 321 320 317 316 315 314 319 323 324 327 328 334 351 357 355 351 352 354 354 357 356 356 355 355 355 353 358 359 354 356 355 353 353 351 348 347 347 348 349 349 348 348 348 348 348 347 349 350
311 313 313 314 313 312 312 313 313 313 313 312 312 313 315 315 314 314 313 313 313 312 311 311 315 318 319 319 317 317 317 319 321 322 323 321 318 317 318 320 321 321 319 317 316 314 317 321 323 324 326 340 354 356 353 350 353 356 355 357 356 357 358 356 355 354 358 357 355 358 353 352 356 350 347 348 347 348 350 349 348 348 347 347 347 347 347 349
310 312 313 314 314 313 313 313 313 313 313 313 313 316 318 319 317 315 314 313 312 312 312 314 319 319 320 320 318 318 318 320 320 321 322 322 318 314 315 318 320 320 319 317 315 316 316 319 321 320 327 347 355 352 353 353 354 357 357 357 356 355 357 356 354 355 358 355 355 361 356 353 354 349 347 349 347 348 349 349 348 347 347 347 347 347 347 348
309 311 313 314 314 314 313 313 313 313 313 314 316 318 320 321 318 315 314 314 314 313 313 317 320 320 323 321 319 319 320 320 320 320 321 322 319 316 313 315 318 319 318 317 315 317 318 318 318 324 338 350 353 354 358 356 355 356 353 353 355 354 356 358 354 355 359 356 356 362 360 356 353 348 348 348 347 348 349 349 348 347 347 346 347 347 346 347
308 310 312 313 314 314 313 313 313 313 314 315 318 320 322 322 318 316 315 316 315 312 314 320 321 320 323 321 320 321 321 320 320 320 320 321 321 318 313 312 315 315 316 315 314 315 315 316 321 336 351 354 355 357 357 354 353 355 351 348 351 353 355 358 357 356 358 358 358 361 361 357 351 347 347 348 349 348 348 349 348 348 347 346 347 346 346 346
308 309 311 313 313 314 313 313 313 313 315 316 319 321 323 322 319 317 317 318 316 313 315 321 320 320 322 320 321 320 319 319 320 320 319 320 321 318 313 312 313 312 313 312 313 315 314 323 336 349 355 355 358 357 348 344 344 349 350 348 351 355 352 355 360 357 355 359 361 361 360 357 351 347 347 348 349 348 348 348 348 348 347 347 346 345 346 346
307 307 309 312 313 313 313 313 313 314 316 317 319 322 323 322 321 321 321 319 317 316 317 320 322 323 321 320 320 319 319 319 320 319 318 319 319 317 315 316 314 313 315 315 316 316 317 332 348 354 355 355 359 355 342 338 340 345 348 347 349 353 352 354 359 358 356 359 362 361 361 359 352 347 346 347 349 349 348 348 348 348 347 347 346 345 346 346
307 307 308 311 313 313 313 313 313 314 317 317 320 321 322 323 323 322 320 320 322 322 321 322 323 321 319 320 319 320 321 320 320 319 318 319 319 318 318 317 316 317 319 321 321 317 324 341 350 350 352 355 358 355 346 344 346 349 352 350 348 349 352 356 359 358 358 360 363 363 362 361 353 348 347 347 348 349 348 347 347 348 347 346 346 345 345 345
307 307 307 309 313 314 314 313 313 315 317 318 319 320 321 323 324 324 321 321 323 321 319 321 321 319 320 321 319 321 321 319 320 319 318 319 319 318 317 316 317 319 320 323 322 317 324 340 348 349 351 356 357 352 349 351 352 353 356 353 350 349 352 359 361 358 358 360 361 362 362 360 353 348 347 346 348 349 348 348 347 347 347 346 345 344 345 344
307 307 307 309 312 313 314 313 313 316 317 318 319 320 320 321 323 324 320 321 321 319 320 320 319 320 320 320 320 321 320 319 318 318 319 319 319 318 316 316 318 320 318 320 320 317 321 329 338 345 350 356 355 349 349 352 354 354 354 352 350 350 353 359 361 357 358 359 360 361 360 359 354 350 348 347 348 348 347 347 347 347 347 346 346 344 344 344
307 307 307 308 311 313 314 313 314 316 316 318 319 319 319 318 320 321 319 321 321 319 320 320 319 320 321 320 321 321 320 319 317 317 319 318 318 318 317 316 319 320 317 317 321 320 320 322 325 328 337 352 355 350 348 350 353 354 352 350 348 351 355 357 360 359 357 358 361 361 360 358 356 352 351 349 347 347 346 346 346 347 346 346 345 345 344 343
307 307 307 309 311 313 314 313 315 317 315 317 319 318 318 317 318 319 319 321 321 320 322 323 321 323 324 321 321 321 319 318 318 317 318 318 318 318 317 317 318 318 317 320 322 320 319 319 320 317 326 347 355 351 348 346 348 352 350 344 344 352 352 348 356 361 357 358 360 360 358 358 358 354 353 351 350 349 348 347 347 346 346 345 344 344 344 343
308 308 307 309 310 313 314 313 316 317 314 317 319 319 317 316 318 320 319 321 322 323 322 321 321 323 324 321 320 321 318 317 318 318 319 319 318 317 317 317 317 318 318 319 320 320 319 318 318 316 320 335 344 349 350 343 341 345 350 345 344 353 352 348 357 359 357 357 359 358 352 352 356 356 354 353 355 355 352 349 348 346 346 345 343 343 343 343
308 309 308 309 311 313 313 314 317 316 314 317 319 319 316 315 318 320 321 322 321 321 319 316 318 320 320 318 318 319 316 317 318 318 319 319 318 318 317 315 316 318 317 316 318 319 319 317 316 317 318 324 332 340 344 344 338 336 344 348 347 354 354 355 358 356 353 352 356 355 344 344 354 356 355 354 355 356 355 352 348 347 347 345 344 343 342 342
308 310 309 309 311 313 314 317 317 314 315 317 319 319 315 316 319 319 323 322 315 315 317 314 315 317 315 315 316 317 317 319 317 317 319 320 319 318 317 316 316 318 316 315 317 317 317 315 315 318 318 319 323 325 331 340 334 328 335 343 346 353 355 355 354 350 346 346 355 356 343 341 349 353 355 355 354 355 355 354 350 349 349 347 345 343 342 342
308 311 311 311 312 313 316 317 315 315 317 317 318 317 315 317 320 319 322 319 313 313 316 315 315 316 315 315 316 317 318 319 318 318 320 322 320 318 318 318 317 317 316 316 315 315 316 315 315 317 317 318 318 317 323 329 326 327 335 340 346 354 354 354 353 348 346 347 353 356 348 343 343 349 356 355 355 356 355 355 353 351 350 348 346 344 342 342
309 312 313 312 314 314 314 315 315 316 316 316 316 316 316 319 320 322 321 315 312 315 315 315 316 315 315 315 316 319 318 319 320 318 318 319 319 319 320 320 318 318 317 316 314 314 317 316 316 317 316 317 316 319 326 324 324 335 345 346 349 354 353 354 352 347 346 346 345 349 351 346 340 346 357 356 354 357 355 355 355 352 351 350 348 344 341 342
309 312 314 314 314 315 314 314 315 316 316 316 315 316 319 320 320 324 321 313 312 315 315 316 316 314 315 316 316 317 317 318 319 318 318 319 318 319 320 319 318 319 317 316 316 317 317 317 317 316 318 319 315 322 329 325 328 344 350 348 350 351 351 353 350 346 346 343 340 344 348 345 340 343 353 354 352 354 355 355 354 352 352 352 350 346 342 342
309 313 314 314 315 315 314 314 315 316 315 314 316 319 320 321 320 320 317 312 312 314 315 315 316 315 316 317 317 316 316 318 319 318 318 319 318 317 317 317 317 319 318 317 318 318 317 318 320 317 318 320 317 322 327 327 334 346 349 348 349 349 348 350 349 346 346 341 337 342 346 344 339 341 349 354 353 354 355 354 353 352 352 353 352 348 344 342
310 313 314 314 314 314 314 316 315 315 315 315 319 321 321 324 323 316 314 313 312 313 315 315 316 316 317 317 317 316 317 318 319 319 319 318 318 318 317 317 318 318 318 318 317 318 318 318 321 320 320 323 325 327 329 333 340 346 350 348 344 344 344 344 344 344 342 338 337 342 347 345 338 338 348 355 354 352 353 353 354 354 352 353 353 349 345 342
310 313 314 314 314 314 315 316 314 314 315 317 321 323 323 322 317 313 313 313 311 312 314 315 315 317 316 317 317 317 317 318 318 319 319 317 318 320 319 319 319 316 314 315 316 317 318 318 319 318 321 329 332 332 336 344 347 347 347 339 333 339 342 340 339 339 337 335 338 344 347 346 341 341 349 353 351 350 349 350 352 352 352 353 353 350 346 343
311 313 314 314 314 314 314 314 315 315 317 319 322 324 325 318 311 313 315 312 311 312 314 315 314 315 316 315 317 317 316 317 318 318 317 317 318 319 319 318 319 316 314 315 314 313 316 317 318 318 321 330 333 332 335 343 347 345 341 332 325 332 340 341 339 337 335 334 339 346 347 343 340 343 354 355 352 352 349 348 350 351 353 352 352 351 348 345
311 313 314 314 314 314 314 315 316 317 318 319 321 321 320 315 313 317 318 315 314 313 313 313 314 314 315 315 315 316 317 316 318 318 318 317 317 318 319 317 317 317 317 316 313 313 312 312 318 319 320 328 334 336 336 339 346 346 342 335 326 325 332 336 336 335 336 338 343 347 343 337 335 343 355 355 353 354 351 348 348 350 352 351 351 352 349 347
312 314 314 315 314 314 315 317 317 319 318 319 325 323 318 315 315 316 316 315 315 314 313 313 315 316 316 316 315 315 316 316 317 319 318 318 317 317 319 318 317 318 317 315 314 316 313 313 319 319 319 327 333 339 342 340 345 346 344 339 331 328 332 332 332 336 338 340 344 345 340 338 341 346 353 354 354 354 352 350 348 348 350 349 350 352 351 348
314 315 315 316 316 317 318 318 319 321 320 323 327 321 317 320 318 315 318 318 314 314 314 313 315 316 314 316 317 316 316 316 317 318 317 318 317 318 319 318 318 317 317 317 316 317 313 315 321 318 319 324 327 339 347 338 340 343 340 337 332 333 337 332 333 339 336 333 338 341 338 338 342 344 349 355 355 355 354 352 350 347 348 349 350 352 352 350
316 317 317 318 319 320 319 319 320 321 324 330 326 318 320 323 317 317 323 320 313 313 314 313 314 314 313 314 316 317 316 316 316 316 316 317 316 317 319 318 317 317 318 318 317 318 315 315 321 320 320 319 319 333 342 332 335 341 336 335 332 331 332 332 334 338 334 328 331 337 337 336 335 338 350 357 355 355 356 354 352 349 347 349 350 351 352 350
318 318 319 320 320 320 319 320 321 323 331 337 331 324 325 323 316 318 320 317 313 314 314 313 314 315 314 313 314 316 316 314 316 317 317 317 316 317 318 318 317 317 316 317 318 319 317 314 318 321 320 319 323 336 337 327 326 332 333 334 331 329 328 329 331 333 331 329 329 332 335 336 337 342 351 357 356 357 356 355 355 351 347 348 349 351 352 351
318 320 321 321 319 319 320 320 322 329 333 332 329 326 322 321 320 321 320 316 313 315 316 314 314 316 316 314 315 317 315 314 317 319 317 316 316 317 318 317 317 317 316 318 320 321 320 316 316 321 322 320 329 338 333 327 323 323 331 332 326 327 327 327 328 326 326 328 329 326 328 336 345 351 355 356 357 358 357 356 356 354 349 347 347 349 351 351
320 323 323 320 318 320 321 320 326 335 331 323 324 324 319 318 321 322 320 317 314 314 316 315 315 316 317 316 315 316 317 316 318 317 316 317 316 317 318 316 316 318 315 317 320 321 323 319 316 321 323 319 323 328 327 327 322 319 326 327 320 319 321 321 322 321 321 324 327 323 322 334 348 354 357 358 358 358 357 356 356 354 352 348 347 349 350 351
319 324 322 319 319 321 322 323 326 331 327 321 321 321 318 319 321 320 318 315 314 314 314 315 317 317 317 318 316 316 319 318 317 317 316 316 316 316 317 316 316 316 316 319 322 321 323 322 317 318 319 317 320 322 321 322 322 323 326 327 322 317 316 316 317 317 316 320 325 321 322 338 351 352 354 358 359 358 356 355 355 354 352 350 349 348 349 351
320 322 320 319 320 321 322 325 324 322 322 321 320 318 320 323 321 319 316 313 312 313 314 316 317 318 319 317 317 318 320 318 316 317 315 316 318 317 317 316 315 316 317 319 321 321 325 327 321 317 318 321 322 322 320 320 326 333 336 337 331 318 314 314 313 315 317 321 326 322 324 342 354 351 353 356 357 356 354 354 355 354 353 353 353 351 350 351
320 321 318 319 322 321 323 326 324 322 321 321 320 317 318 320 318 316 315 314 313 313 315 316 316 318 319 317 318 320 319 317 316 317 317 317 317 318 319 317 316 317 319 319 320 324 330 330 322 319 322 323 322 322 322 322 328 333 338 344 340 331 329 323 317 318 319 322 327 319 322 342 353 351 353 355 356 356 353 353 353 353 353 353 355 355 354 352
320 319 320 322 321 320 322 324 323 324 326 324 323 320 317 316 316 315 315 316 316 314 316 318 315 316 318 318 320 321 318 316 316 316 318 318 318 321 321 317 318 321 320 321 321 323 331 332 324 317 319 320 319 320 321 325 329 331 337 344 344 342 339 328 323 320 319 327 330 316 322 345 352 351 354 354 356 356 353 353 352 352 353 352 353 354 354 353
319 319 322 324 322 320 320 320 322 326 329 327 325 323 319 315 314 314 314 316 315 314 316 317 315 317 319 319 320 321 319 317 317 318 318 317 319 323 319 318 325 331 328 330 330 325 329 333 327 319 317 317 319 321 322 327 331 334 340 345 346 344 335 324 320 315 316 332 335 323 332 350 353 352 354 354 356 357 354 353 351 351 352 352 352 353 353 353
321 322 327 327 324 322 321 321 323 326 327 327 326 322 317 315 314 313 313 314 313 314 317 316 316 319 319 321 323 323 321 319 319 322 323 320 320 321 320 320 327 336 338 336 334 331 331 332 331 330 325 321 324 329 331 332 334 338 341 343 346 346 337 327 318 314 321 334 338 338 345 349 350 355 356 355 357 357 355 353 352 351 351 351 351 351 351 351
322 325 329 330 327 325 325 325 326 328 325 324 325 321 315 315 315 313 313 314 313 316 317 316 318 319 319 323 325 322 323 324 322 323 323 322 322 321 321 319 321 333 340 331 326 332 336 332 332 336 332 329 332 337 337 338 339 341 343 344 346 346 341 333 325 327 334 331 332 346 351 345 349 357 356 355 356 355 354 352 351 350 349 348 349 349 350 350
325 325 326 327 328 327 326 326 329 330 325 321 324 323 318 316 316 315 315 314 313 315 317 319 320 319 320 324 323 324 329 326 322 324 324 323 324 322 320 318 317 326 331 322 321 332 335 330 330 333 333 334 338 339 340 340 340 342 343 345 347 345 345 343 339 342 344 334 334 348 350 347 354 356 354 355 355 353 352 351 349 348 347 347 348 349 350 350
325 326 324 325 328 328 327 327 331 330 324 324 327 326 323 318 315 316 314 314 317 316 318 322 323 318 319 326 331 334 335 325 319 324 327 324 323 323 321 320 317 320 322 319 323 329 330 329 330 331 333 337 337 338 339 338 337 339 342 344 347 346 345 346 346 347 348 345 346 350 349 350 354 352 353 353 349 348 348 347 347 348 348 348 349 349 350 349
320 323 325 326 327 329 329 328 329 327 322 326 329 327 325 319 315 318 317 315 318 318 316 320 323 320 320 328 335 332 332 331 325 324 326 324 322 325 325 321 318 319 321 320 322 324 325 327 330 330 333 335 335 333 332 335 336 336 339 342 345 346 345 346 348 349 348 348 349 349 350 352 350 349 350 348 344 344 344 344 346 346 346 347 347 348 349 349
315 318 321 326 328 330 330 327 325 324 322 326 329 328 327 322 318 321 320 315 316 318 318 320 321 322 321 325 329 322 324 332 326 320 325 323 319 323 324 320 319 320 322 323 323 324 326 326 326 327 328 330 332 331 329 331 330 329 334 340 342 345 346 345 346 347 347 348 349 347 348 351 350 348 347 344 342 342 343 343 344 344 344 344 345 347 348 347
314 316 318 324 328 328 329 328 324 323 322 326 329 328 328 325 321 320 321 318 315 314 316 319 320 322 321 323 325 321 321 326 321 317 322 319 315 317 318 317 317 319 323 325 324 327 330 328 326 324 322 324 328 330 328 326 321 322 331 338 340 344 346 345 346 346 346 347 347 345 347 350 350 348 345 343 341 341 341 340 340 342 343 342 342 344 344 344
Wind_Speed
12 11 10 9 9 10 10 10 11 12 12 12 12 11 11 10 9 7 6 6 7 8 8 9 10 10 11 12 13 14 16 15 13 8 5 6 5 5 5 10 14 17 19 18 17 14 9 7 7 6 6 4 1 0 1 0 2 1 0 1 3 3 4 2 2 3 4 7 8 8 9 11 10 7 6 7 9 9 9 8 9 10 10 14 18 20 19 17
12 11 11 10 10 9 10 10 11 12 12 12 12 11 10 10 9 7 6 6 6 7 8 9 10 10 11 13 14 14 16 14 10 6 4 5 3 6 9 11 16 20 20 18 18 15 11 9 9 8 5 3 1 0 0 1 2 1 1 0 2 2 3 2 2 2 2 8 9 7 8 10 10 10 8 6 8 9 9 9 10 13 13 15 20 20 18 17
13 12 11 10 10 9 10 10 11 12 12 12 11 10 9 9 8 6 6 6 6 6 7 8 9 10 11 13 13 14 14 10 4 2 7 5 5 9 12 14 17 21 18 17 18 16 13 11 10 8 4 2 1 1 0 1 1 1 1 1 2 2 2 1 1 3 2 7 11 8 6 7 8 8 6 8 10 7 8 9 10 13 14 16 18 18 18 16
14 12 10 9 9 9 10 10 11 11 12 12 11 10 9 8 7 6 5 5 6 6 7 7 8 9 11 13 12 12 10 4 1 2 10 4 10 12 15 17 17 19 15 14 15 13 13 12 9 5 3 2 2 1 1 1 1 0 1 1 3 1 1 2 1 2 2 6 9 9 8 8 7 5 7 12 10 5 7 8 9 14 17 17 17 18 17 15
15 13 11 10 9 9 10 10 11 11 12 12 11 10 9 8 7 6 5 5 5 5 6 7 8 9 11 12 11 10 6 1 2 5 9 3 12 14 17 19 19 16 12 13 12 11 12 11 8 4 2 2 2 2 2 2 2 1 0 2 2 0 1 2 1 1 3 7 8 10 10 9 6 5 9 11 6 2 6 7 8 14 17 18 18 17 16 14
16 14 12 10 9 9 10 11 11 12 11 11 10 10 9 8 8 7 5 5 5 4 6 7 7 9 11 12 9 7 3 1 3 7 7 5 14 15 18 20 20 14 12 14 12 12 11 8 7 4 2 3 3 2 2 4 4 2 1 1 1 1 1 2 1 2 4 8 8 9 8 7 8 6 6 4 2 1 5 8 9 13 16 18 18 16 15 13
17 15 13 11 9 9 9 10 11 11 11 10 10 9 8 8 7 7 6 5 5 5 6 6 7 9 12 10 6 4 1 1 6 6 5 9 15 15 16 18 19 14 11 14 11 9 9 8 7 4 3 3 2 3 3 5 5 3 2 4 3 2 2 1 1 2 3 6 5 6 7 7 8 7 5 2 4 3 9 11 12 15 16 17 16 14 14 13
18 16 13 11 10 9 9 10 10 10 10 10 10 10 9 8 6 5 5 5 5 5 5 6 7 9 11 8 3 2 1 4 7 5 7 11 15 14 14 15 18 14 11 13 10 7 9 9 7 4 3 3 1 1 4 5 4 5 3 3 3 3 4 4 4 3 5 5 3 6 8 4 4 7 7 3 4 7 11 13 13 15 15 14 13 13 12 11
18 16 13 12 10 9 9 9 9 10 10 11 11 11 10 9 8 6 4 4 4 4 5 5 5 8 10 6 1 1 2 4 6 8 8 10 13 13 13 14 18 15 11 11 8 7 7 7 7 4 2 3 1 1 5 4 2 5 3 1 3 4 6 8 7 5 4 3 1 7 8 4 4 7 6 3 6 10 12 14 14 14 14 12 11 12 11 10
19 17 14 12 10 10 9 9 9 10 11 11 12 12 12 11 9 7 6 4 3 3 4 4 4 7 8 4 1 2 2 3 8 10 7 6 11 14 13 13 17 15 10 8 6 7 4 4 5 2 1 1 1 1 4 3 1 3 2 4 1 2 6 10 10 5 2 3 2 7 8 5 4 3 3 5 8 12 13 14 14 13 13 11 10 11 11 11
19 17 15 12 11 9 9 9 10 11 12 12 13 14 14 13 10 8 6 4 3 3 3 3 4 5 5 2 1 2 3 1 6 7 6 5 7 12 13 12 16 15 11 6 6 8 2 1 3 1 1 1 0 3 2 1 4 6 5 7 6 5 3 8 12 5 1 3 3 5 8 5 4 2 2 9 11 13 14 13 13 13 11 11 10 10 10 10
19 18 16 13 11 9 9 10 11 12 13 14 15 16 16 15 10 8 5 4 3 3 2 2 3 5 3 0 1 2 4 1 4 4 4 5 5 7 10 11 14 14 12 6 6 9 2 2 1 0 2 2 2 3 3 4 5 6 4 5 6 7 6 6 10 4 0 2 4 0 5 4 4 1 3 11 12 12 13 13 13 11 10 10 10 9 8 9
19 18 16 14 12 11 10 11 13 14 14 16 17 16 16 13 9 5 3 2 2 1 1 1 3 4 2 1 1 2 3 2 4 3 2 5 6 6 6 9 11 11 11 7 3 5 6 1 3 3 2 1 2 3 5 5 3 4 3 4 5 5 4 5 4 2 1 2 5 3 3 3 3 1 5 11 13 14 13 12 12 10 9 9 9 8 8 10
18 18 17 16 13 12 12 13 14 15 16 17 16 15 13 10 6 2 2 2 1 1 0 1 3 2 1 1 1 2 1 4 5 4 1 5 6 6 6 8 10 10 9 8 2 2 5 6 2 2 2 0 5 5 6 4 2 3 3 3 3 4 3 4 3 4 1 1 5 3 2 2 2 3 7 11 13 16 13 12 13 10 9 9 8 8 8 10
18 18 18 17 15 14 13 14 15 16 18 17 14 12 9 7 4 1 2 2 1 1 0 1 3 2 1 0 0 1 2 3 4 4 2 6 6 5 6 8 9 10 9 8 5 4 3 3 2 1 1 4 7 7 5 3 2 2 1 2 2 3 3 3 3 4 2 1 4 2 1 1 1 5 9 10 12 15 13 13 13 12 11 9 8 8 8 9
18 18 18 17 17 15 15 16 16 19 20 17 13 9 7 6 3 3 2 1 1 1 0 1 2 1 0 2 1 1 1 2 4 5 2 5 5 5 7 8 7 8 7 6 6 2 2 1 1 1 4 6 6 5 3 2 2 0 0 2 2 3 3 3 2 2 2 3 2 2 2 2 2 6 9 9 12 13 11 12 12 12 12 10 8 8 8 8
18 18 18 18 17 16 17 17 18 20 19 16 12 7 8 6 3 3 2 2 1 2 1 0 0 2 1 1 1 1 2 4 5 5 1 5 5 7 10 6 4 6 5 2 2 2 0 1 2 2 4 4 4 4 2 1 1 0 2 2 3 4 5 5 3 2 3 4 1 2 2 2 3 8 10 10 13 12 11 12 12 11 10 9 9 8 8 8
19 18 17 17 17 17 17 17 19 20 17 15 10 7 9 6 3 3 2 2 2 2 1 1 1 1 0 1 1 3 7 7 5 3 1 6 7 8 7 3 4 6 5 3 2 1 1 1 1 2 3 3 5 4 2 2 3 2 3 3 4 5 5 5 4 5 6 4 2 2 2 2 4 9 10 11 12 13 12 11 11 11 10 9 8 8 8 8
20 18 16 17 16 16 16 16 19 18 15 14 8 5 8 6 3 2 2 2 1 0 1 1 0 0 1 0 1 6 9 7 3 1 3 7 9 6 3 3 5 5 4 3 2 1 1 2 2 3 4 5 6 3 3 5 4 3 4 3 5 5 4 4 3 4 5 4 3 2 2 3 5 9 10 11 11 12 11 9 9 10 9 9 8 8 8 9
20 17 16 16 15 16 15 16 18 16 14 14 8 2 4 4 2 1 0 1 1 1 1 1 1 2 3 2 3 7 6 2 1 3 5 6 9 7 3 2 2 2 2 2 3 1 1 3 3 3 4 5 6 2 4 3 2 6 5 4 5 4 4 4 4 2 0 2 3 2 3 3 6 9 11 11 11 11 11 10 10 10 9 9 10 10 10 10
20 17 15 14 14 15 14 16 16 13 12 12 7 3 1 2 3 3 3 3 3 2 3 2 2 4 6 5 5 4 2 1 2 3 5 6 7 6 1 2 2 3 1 0 2 2 2 3 2 3 3 4 6 2 5 5 5 5 4 4 4 3 4 3 4 4 2 1 2 2 3 3 5 6 7 10 12 13 12 12 12 12 11 9 10 12 11 10
19 17 15 13 13 14 14 16 14 9 12 10 5 4 3 1 4 5 3 3 3 2 2 2 1 5 7 7 6 1 1 1 2 2 5 7 3 1 0 1 2 3 1 1 2 2 2 2 2 2 1 4 6 2 5 6 3 2 2 4 3 2 4 3 3 4 2 2 2 3 3 3 4 4 5 9 12 12 11 12 12 13 13 11 11 12 11 10
19 17 15 13 12 13 13 16 11 6 12 10 3 5 2 5 4 7 4 2 4 1 1 1 1 3 4 3 3 4 1 0 2 1 5 6 1 0 2 2 2 2 1 2 3 3 2 1 1 1 4 5 7 4 1 3 0 1 1 2 2 4 4 1 3 4 2 2 1 3 4 2 3 4 5 8 8 7 8 9 8 9 12 12 13 12 11 11
19 17 15 12 12 12 13 15 7 5 14 9 3 3 3 11 6 6 4 1 2 2 1 1 1 2 2 1 4 5 1 0 2 2 5 5 2 1 2 2 2 2 1 1 2 2 2 1 2 3 5 5 5 4 3 2 2 3 3 3 2 6 4 1 5 5 2 1 2 4 3 3 6 7 7 6 4 4 6 8 8 9 10 10 11 10 10 11
19 16 14 13 11 11 13 10 3 7 15 5 4 1 6 15 8 7 4 1 1 2 1 2 1 2 1 1 3 3 0 1 2 1 3 5 4 3 1 1 1 2 3 2 3 2 1 1 3 4 4 5 5 4 5 5 3 4 5 6 6 7 6 6 9 6 2 3 4 5 4 3 6 10 10 7 6 7 6 9 12 11 10 9 9 10 11 11
19 16 13 12 11 11 10 3 3 12 12 1 3 3 8 17 7 9 3 1 1 3 1 1 0 1 1 1 3 2 1 1 1 1 2 4 4 2 2 1 1 1 3 3 1 1 1 1 2 3 4 6 5 4 5 6 4 3 2 4 7 7 8 9 10 6 3 2 2 4 5 3 3 8 11 9 9 10 8 9 14 13 11 10 9 10 11 11
19 15 13 12 11 12 7 1 7 12 5 1 4 6 12 16 3 9 2 2 2 2 2 2 1 1 1 1 2 2 1 2 1 1 1 2 2 1 1 3 1 1 2 2 1 2 2 3 2 2 3 4 5 3 3 5 5 2 6 7 5 7 8 9 8 5 1 0 1 3 3 4 4 4 8 11 11 10 10 12 13 13 13 13 11 11 11 12
18 14 12 11 12 12 7 4 8 6 2 4 6 9 15 9 6 6 1 1 2 1 2 2 1 1 1 1 2 0 1 2 1 2 0 1 2 1 1 3 3 2 2 3 3 1 3 5 5 4 3 3 4 5 8 6 2 1 1 0 4 8 8 8 6 3 1 2 2 4 4 4 5 2 5 11 12 12 14 14 14 15 14 13 13 13 13 13
16 13 12 11 11 11 7 7 6 3 3 6 9 13 9 3 7 2 0 2 2 1 1 1 1 1 2 0 1 1 1 1 1 1 1 2 2 1 1 2 3 3 2 1 3 2 2 4 4 5 4 4 3 8 12 11 3 4 11 11 10 9 7 5 3 2 2 3 4 6 8 5 4 2 4 8 11 13 15 14 14 15 15 13 13 13 13 12
15 12 12 11 11 8 8 8 5 2 5 9 12 9 3 6 2 0 1 1 2 1 1 1 2 1 0 1 1 1 1 1 1 1 1 1 1 2 1 1 2 2 2 0 4 5 2 0 2 3 4 2 5 7 10 13 10 7 11 12 9 7 5 3 2 3 1 4 4 6 11 7 4 2 5 7 7 9 11 10 12 15 15 14 12 12 13 11
12 11 12 12 10 7 6 5 3 5 10 12 9 2 5 2 1 2 2 2 1 1 1 1 2 1 1 1 1 1 1 1 1 0 2 1 1 2 0 2 2 1 2 1 4 3 1 2 3 3 3 4 8 8 7 13 15 9 6 7 6 4 2 2 2 0 3 3 1 3 10 9 5 2 3 5 4 5 6 7 11 16 17 15 13 13 13 11
11 10 11 11 11 9 7 5 7 10 12 9 4 2 2 1 1 1 1 2 1 2 1 1 2 1 0 1 1 0 1 1 1 1 2 1 1 1 2 2 1 2 2 1 2 1 3 4 2 0 3 7 9 9 6 9 11 7 5 7 4 2 2 2 2 2 4 2 3 2 8 7 7 4 3 5 7 8 9 8 10 14 16 15 14 14 12 11
10 10 11 11 11 11 10 9 10 11 9 4 2 1 1 1 1 0 1 1 1 1 0 1 2 1 1 1 1 0 0 0 0 1 1 0 1 1 1 1 1 2 1 0 1 2 2 3 3 3 3 6 9 9 7 7 8 9 8 6 5 3 3 3 3 2 3 2 2 3 6 4 6 3 4 6 8 9 9 10 11 12 14 15 14 14 12 12
10 9 9 11 10 9 9 9 8 8 6 1 2 0 1 2 0 1 2 2 2 1 1 1 2 2 0 0 1 1 1 1 1 0 1 1 1 0 0 1 2 2 1 1 1 1 1 2 4 4 3 7 10 8 10 11 8 7 4 3 4 4 3 3 3 3 1 3 4 5 5 3 2 3 4 5 8 9 9 8 9 12 13 13 12 12 12 13
10 8 8 9 8 6 6 5 5 5 3 1 1 1 1 1 1 1 1 2 2 3 1 0 1 1 1 1 2 1 0 2 2 1 1 1 1 1 1 0 1 3 2 1 1 1 2 1 2 0 1 10 10 5 10 11 6 2 2 3 5 3 2 0 1 1 2 3 3 4 3 2 0 3 2 6 8 10 11 8 4 10 13 13 12 10 10 11
9 6 5 6 5 3 3 3 3 3 1 1 1 2 1 1 1 2 1 2 2 4 4 1 1 1 2 1 1 2 1 1 1 0 2 1 1 0 1 1 1 4 3 1 1 1 1 0 1 3 1 7 6 6 10 8 5 5 2 4 3 1 0 1 2 2 1 3 3 3 4 2 1 3 2 9 11 11 13 11 3 6 12 14 13 10 9 10
8 3 2 1 3 3 2 2 3 3 1 1 1 1 0 1 2 3 2 2 1 2 2 1 1 2 2 1 1 2 2 1 0 0 1 0 1 0 2 2 1 3 4 3 1 0 2 1 2 2 2 2 1 7 9 3 5 8 6 6 3 1 2 1 1 2 2 3 2 2 4 2 1 1 5 12 14 13 13 12 7 2 9 12 12 12 11 10
8 2 1 3 6 5 1 5 5 3 2 1 0 0 1 1 1 3 2 1 1 0 0 1 1 1 0 0 1 2 3 0 1 0 1 0 0 1 2 2 2 1 2 3 1 1 2 1 2 1 1 1 2 9 8 2 2 4 4 5 3 3 4 1 1 3 3 3 1 2 3 1 1 2 7 12 14 14 14 12 8 3 7 10 11 12 10 8
5 1 1 3 8 5 2 6 4 2 2 1 0 0 1 2 3 4 3 1 1 1 0 1 1 0 0 0 0 1 2 0 2 1 1 0 0 1 1 1 1 1 1 2 1 2 1 2 2 2 2 2 4 6 7 6 3 2 4 5 1 2 3 2 2 2 2 3 1 1 2 1 0 3 8 10 12 13 13 11 8 4 5 8 9 11 10 9
2 1 1 3 7 3 4 4 2 1 1 0 1 1 1 2 3 4 3 3 2 1 0 1 1 0 0 0 0 0 2 1 1 1 1 0 1 2 1 1 2 2 2 1 1 2 1 1 2 2 1 2 2 1 2 4 4 2 4 5 3 2 2 2 1 0 2 2 1 2 2 2 2 3 6 9 10 10 11 11 8 5 4 5 6 7 8 10
1 1 2 4 6 3 5 1 1 1 1 0 1 2 1 2 2 3 1 3 2 1 1 1 2 0 0 1 1 0 1 2 1 1 1 1 1 1 1 0 1 2 1 0 1 0 1 1 2 2 1 2 3 3 3 1 2 1 2 3 3 3 2 4 4 1 1 1 0 2 1 2 2 3 5 7 8 8 9 9 6 4 2 3 3 3 5 7
1 1 1 4 3 4 3 1 1 1 1 1 1 2 1 1 2 2 1 1 1 0 1 1 1 1 0 0 1 0 1 2 2 0 1 0 1 1 0 1 2 2 1 0 1 1 1 1 1 1 1 1 2 2 2 2 4 5 5 3 1 2 2 4 4 2 2 1 1 0 1 1 1 4 4 5 6 7 7 8 6 6 4 3 3 2 2 3
0 2 1 4 1 4 1 1 1 0 1 1 1 2 2 0 2 1 1 1 1 0 1 1 1 1 0 0 0 1 1 1 1 1 1 0 1 1 1 2 2 2 1 1 1 1 0 1 1 1 1 1 2 3 3 4 4 4 5 5 2 1 1 2 2 1 2 2 1 2 2 2 1 3 4 4 6 6 7 8 7 7 6 6 6 5 4 4
1 2 2 4 2 3 1 0 2 1 1 1 2 2 2 2 3 2 1 1 1 1 1 1 1 1 1 1 1 2 1 0 0 1 1 1 0 0 1 2 1 2 1 1 2 1 1 0 1 1 1 2 4 4 4 3 3 2 3 5 5 2 3 3 1 2 2 0 0 3 2 2 2 3 4 5 6 7 8 8 8 7 5 4 4 4 4 5
2 1 2 4 3 2 1 0 1 1 0 1 2 2 2 2 2 2 2 1 1 1 1 1 1 1 1 1 1 2 2 1 1 0 1 0 1 1 2 4 2 1 2 3 2 1 1 1 1 2 2 3 2 1 0 1 3 2 3 7 7 2 3 3 1 3 3 1 1 2 1 3 2 2 5 7 7 8 9 9 8 5 4 3 3 3 4 4
2 0 1 2 3 3 1 1 0 1 1 0 1 1 1 1 1 1 1 1 1 1 1 1 1 1 1 1 1 2 3 3 1 1 0 1 1 1 2 4 3 4 6 6 4 1 2 2 1 0 2 2 2 1 1 0 1 3 5 8 9 4 1 1 1 2 3 4 2 1 2 6 4 2 5 7 8 8 9 8 6 4 4 5 6 6 6 5
1 1 1 1 1 1 1 1 1 1 2 1 1 0 1 2 1 0 1 0 1 1 1 1 1 1 1 1 2 2 2 2 2 2 1 2 2 2 3 2 2 3 3 3 3 1 3 2 3 3 5 5 5 4 3 3 4 4 5 7 9 8 4 2 1 1 0 3 3 3 6 7 5 4 5 6 6 8 8 7 6 6 6 7 7 7 7 7
1 1 0 1 1 0 1 1 2 1 1 1 1 0 1 2 1 2 1 0 0 1 1 1 1 0 2 2 3 2 1 1 2 1 0 1 1 2 1 1 2 3 2 1 3 1 3 3 2 2 5 6 7 7 6 6 6 5 6 7 9 10 9 8 5 2 2 2 2 8 10 7 6 5 5 7 7 8 8 6 7 8 8 7 6 7 8 8
2 1 0 1 1 1 2 2 2 1 2 2 1 1 1 1 2 2 1 2 1 0 1 2 2 1 2 2 3 2 2 2 1 1 1 1 0 1 0 1 1 2 1 2 2 1 1 3 0 1 5 6 5 6 5 5 6 7 7 7 8 9 11 10 8 6 3 3 6 11 10 7 6 4 6 9 9 8 7 7 8 9 9 8 8 9 9 9
1 1 1 2 1 2 2 2 2 1 1 2 2 1 1 2 1 2 2 2 2 1 2 4 4 2 2 2 3 3 4 4 3 2 3 2 1 1 1 1 1 2 2 2 2 1 0 2 1 1 3 4 3 4 3 2 5 8 7 6 6 7 8 9 8 7 6 6 9 10 10 8 4 2 7 10 10 8 8 9 9 9 9 9 9 10 10 10
3 2 2 2 1 1 1 1 1 1 1 1 2 1 1 2 1 1 3 3 3 3 4 7 6 3 1 3 3 5 6 6 5 5 6 3 1 1 1 1 2 1 2 1 1 2 0 2 2 1 3 3 1 2 2 0 3 5 6 6 5 3 5 6 5 3 3 6 8 8 7 6 3 3 8 11 10 8 8 9 8 8 9 10 10 10 10 10
4 2 2 2 1 2 2 1 1 1 2 1 1 1 1 1 0 1 2 2 3 3 3 6 8 4 1 4 5 6 7 6 3 3 4 2 1 0 0 1 1 0 1 1 1 1 1 3 3 2 4 4 1 2 3 2 3 2 3 5 3 2 4 5 5 4 3 3 5 4 4 4 4 5 8 10 9 8 7 7 7 8 9 9 10 10 10 10
Wind_Direction
360 357 355 359 0 355 349 344 344 343 342 340 338 338 336 334 330 327 334 345 349 344 344 347 350 348 345 347 346 340 334 330 325 311 251 277 279 218 189 180 176 159 158 165 159 144 133 154 162 156 158 172 214 185 166 242 310 268 324 120 167 161 151 144 133 131 124 137 150 165 152 136 137 125 124 114 97 110 105 88 84 82 95 108 119 131 136 140
2 359 354 358 2 357 352 347 345 344 344 344 342 340 339 340 342 345 347 349 349 347 353 354 355 354 352 351 345 338 335 330 315 290 277 306 261 181 170 173 174 163 160 164 160 147 144 162 162 155 159 170 177 140 153 292 315 334 14 115 174 133 105 67 78 74 122 145 146 160 155 143 143 138 147 136 122 128 114 108 105 101 106 115 125 135 139 143
5 2 356 355 359 357 353 350 350 351 351 351 350 347 347 348 350 355 356 356 358 359 2 360 1 359 354 349 342 339 333 325 305 285 359 353 178 169 168 170 170 167 169 175 170 163 158 157 155 154 163 171 126 116 153 278 302 356 331 1 68 56 80 79 95 51 67 140 141 148 153 142 143 146 151 137 136 149 140 138 133 127 132 134 135 141 145 149
6 2 359 357 358 355 354 352 356 0 360 1 1 358 357 356 358 360 2 9 9 7 6 4 5 359 354 348 340 341 329 306 87 24 359 6 162 164 167 162 162 164 172 179 174 171 159 145 146 148 166 173 106 147 220 215 257 13 305 356 41 40 119 119 120 35 62 139 140 139 141 140 143 150 147 138 139 170 178 166 152 145 144 145 145 146 149 152
7 4 2 2 1 358 357 357 3 8 9 9 9 7 4 2 2 2 8 17 13 12 10 8 7 359 353 348 340 340 323 201 65 2 3 78 157 161 160 154 156 153 157 166 157 159 151 139 147 145 178 197 152 173 209 182 184 153 187 338 7 126 94 86 120 48 101 127 128 141 147 144 139 147 154 148 140 178 183 173 152 147 147 147 149 148 151 153
7 6 4 5 4 2 2 2 5 11 12 13 13 11 10 8 4 2 4 7 9 14 12 9 5 1 356 348 345 342 319 131 4 354 21 127 155 154 153 154 157 146 147 156 141 145 143 139 164 168 187 219 209 209 188 172 191 221 195 218 243 191 102 72 111 40 107 130 133 148 142 137 140 144 160 140 43 19 149 146 139 141 143 144 146 149 153 155
8 7 6 6 5 5 4 6 9 10 10 10 9 7 10 10 6 3 357 352 357 6 11 7 3 3 358 351 348 350 347 21 350 3 62 141 152 150 156 160 164 155 152 157 148 149 142 150 176 178 201 237 230 215 186 169 192 238 233 201 222 219 188 145 121 22 88 120 120 141 133 141 150 147 166 94 31 123 134 131 134 137 140 141 144 150 154 157
9 8 8 6 4 4 6 10 10 7 5 2 360 359 359 358 353 354 352 346 344 355 6 1 2 3 1 360 349 3 74 355 354 47 99 148 155 153 157 160 167 164 162 167 165 159 144 156 177 172 216 256 274 189 174 169 194 224 237 203 218 242 218 193 155 89 80 95 100 133 122 116 134 136 152 106 88 132 131 130 134 137 141 145 148 150 153 157
11 9 8 5 3 3 9 12 6 0 357 353 350 347 346 341 333 330 335 337 334 345 356 351 359 5 5 6 323 116 87 4 36 82 102 153 165 162 157 154 162 163 162 171 175 173 164 173 183 185 246 280 297 188 176 190 225 211 228 225 228 246 218 188 157 112 80 66 95 124 104 82 112 130 136 113 129 137 133 134 138 143 146 151 153 152 155 159
11 10 8 6 5 5 8 6 359 355 351 347 343 338 334 329 322 315 313 317 321 331 345 343 351 3 10 3 268 124 119 20 59 81 93 143 172 174 170 161 165 167 161 166 184 189 192 180 174 188 266 311 334 157 179 219 356 149 132 64 16 269 199 174 139 116 78 30 35 118 106 100 139 172 157 147 152 144 139 140 144 150 151 156 158 156 160 163
12 11 9 8 7 6 3 358 355 352 349 345 339 332 327 326 320 306 299 298 310 330 344 338 345 3 15 6 293 98 132 43 49 70 89 120 168 182 188 179 175 180 168 163 202 207 233 127 169 153 159 300 99 124 135 152 103 123 120 88 59 45 107 138 124 132 259 33 7 110 108 104 147 241 157 150 160 152 146 146 151 156 155 160 162 160 163 167
11 11 9 7 5 3 359 356 354 351 349 344 337 331 326 326 321 303 291 284 300 334 350 329 344 359 10 205 239 144 153 323 16 52 90 122 149 176 199 194 184 189 182 178 215 217 220 76 168 13 14 312 190 144 124 128 124 131 130 106 82 62 56 86 117 132 281 97 326 44 121 125 158 234 126 148 159 152 148 150 156 159 159 163 166 165 166 170
10 11 9 5 4 1 359 357 355 352 348 342 337 333 331 329 325 306 273 259 293 330 1 333 342 350 354 178 187 157 174 310 346 7 96 143 142 145 184 197 194 199 198 192 199 219 217 230 352 356 337 288 145 121 128 137 143 141 126 111 107 94 56 24 95 114 57 79 329 313 172 171 159 127 141 154 156 153 154 158 160 162 166 168 171 171 171 176
8 10 9 6 4 2 2 360 356 352 346 342 340 338 339 338 335 320 218 206 226 234 302 358 359 2 299 245 147 126 314 320 334 332 235 167 150 134 155 180 191 202 205 200 161 89 205 224 305 333 292 124 126 128 132 139 144 135 122 121 131 132 108 23 95 155 148 32 335 322 183 175 137 125 154 163 161 159 161 164 165 167 171 173 176 177 176 182
7 8 8 7 4 2 4 1 356 352 347 347 349 349 355 355 355 55 139 163 179 182 196 11 22 22 253 274 161 328 318 316 340 341 288 182 157 125 151 168 179 194 197 201 188 89 97 190 218 229 135 122 141 145 134 132 126 130 139 129 131 136 114 51 107 183 192 83 342 321 150 146 137 146 161 169 167 165 166 169 170 171 175 177 180 183 184 187
6 6 6 6 3 2 4 0 357 354 351 353 357 4 18 15 29 88 118 141 162 170 197 33 38 358 228 77 68 1 333 329 351 348 299 195 168 123 139 148 161 182 187 198 203 186 35 127 171 118 133 144 159 153 137 146 138 302 287 123 132 138 136 116 129 224 191 124 16 347 144 137 140 156 164 172 172 168 167 171 174 175 178 181 184 189 190 187
5 4 4 4 1 1 2 359 356 355 353 356 4 23 29 24 67 100 120 112 132 168 188 138 42 304 326 83 58 29 323 316 347 350 228 179 164 130 131 131 142 161 164 155 177 198 340 125 160 151 159 170 174 176 185 161 141 185 135 135 145 140 154 153 142 177 170 159 116 43 129 126 142 160 165 176 176 173 173 173 177 178 180 185 189 194 195 191
3 2 2 2 360 360 0 357 355 356 355 357 9 41 29 30 82 84 117 109 106 159 157 222 222 257 94 108 38 327 301 300 330 350 137 154 151 133 123 118 125 135 140 119 109 164 138 128 197 173 173 180 176 202 245 356 324 222 161 154 148 143 164 159 140 162 171 168 138 121 134 112 146 162 168 179 181 182 181 174 176 179 182 188 192 198 200 199
360 360 359 359 358 357 358 356 355 359 359 357 6 48 31 33 78 74 128 120 67 75 10 325 297 345 326 340 309 309 305 306 325 55 118 144 154 138 88 98 126 139 154 148 133 158 151 151 179 173 179 188 184 220 317 343 318 188 141 136 147 141 147 139 126 160 172 156 140 147 135 124 160 171 175 181 185 190 184 173 175 180 183 190 197 203 206 207
356 357 356 355 355 353 354 355 355 2 5 360 0 23 24 21 19 12 324 239 244 281 307 266 179 267 297 307 317 324 323 322 47 116 133 149 156 142 67 32 107 115 131 152 137 116 214 189 185 198 202 189 171 82 21 28 77 128 122 121 140 138 126 122 130 138 153 169 166 153 121 141 174 183 186 182 186 194 188 180 181 182 186 192 200 205 209 215
352 352 353 353 353 349 351 354 355 5 10 7 11 29 43 22 356 345 339 304 255 238 251 237 209 261 275 280 304 341 2 14 53 93 141 144 153 153 52 352 124 117 70 33 120 99 224 211 198 224 235 190 174 87 40 70 103 122 126 131 131 140 130 103 132 137 359 314 160 146 148 166 178 185 188 182 189 198 194 191 189 188 191 194 202 208 212 217
348 348 348 350 351 347 347 350 353 7 11 11 40 89 137 10 311 263 278 307 282 247 243 255 243 267 270 269 270 228 89 48 72 81 147 142 145 194 86 52 132 125 75 191 155 147 207 221 235 238 161 163 193 222 40 59 83 105 113 145 145 136 129 94 133 136 9 327 149 166 197 187 172 176 188 191 199 205 202 200 196 191 192 196 203 209 212 213
346 344 345 347 349 346 343 346 350 6 7 6 79 122 116 3 326 226 207 299 292 294 199 240 221 256 285 281 215 172 139 27 123 127 170 158 110 227 148 112 106 119 148 189 180 182 193 177 206 151 130 164 197 201 73 47 298 223 155 178 151 158 170 141 164 153 52 20 130 174 207 224 180 182 202 206 207 210 211 212 209 200 199 203 205 207 209 209
344 341 342 342 345 346 341 341 349 3 357 357 143 134 3 354 350 197 190 311 287 294 229 229 243 227 286 341 157 162 128 228 190 166 172 158 110 152 152 110 128 147 152 133 144 175 213 173 126 114 135 180 191 183 199 228 253 249 238 250 184 173 196 84 138 157 98 69 143 162 200 247 205 201 207 198 195 211 215 217 218 215 213 211 209 208 208 210
343 339 338 339 341 345 340 341 22 350 346 357 162 146 351 347 342 185 192 350 206 302 228 171 240 203 197 106 149 185 277 169 238 238 182 165 137 145 136 113 189 184 155 130 142 184 271 214 157 135 147 175 184 193 195 193 241 264 231 242 238 192 169 121 135 154 187 207 191 188 229 244 191 203 208 184 188 209 208 216 220 218 215 210 211 212 209 210
342 336 334 335 336 341 341 352 14 339 339 92 194 278 336 340 329 175 182 1 107 341 336 153 281 169 179 158 153 202 190 113 290 309 194 178 134 122 149 147 305 197 159 144 173 231 264 174 158 167 169 169 185 201 185 190 227 268 286 265 241 197 153 140 152 164 211 219 176 210 246 264 191 208 208 188 195 209 202 216 224 220 214 208 208 210 206 205
342 334 331 331 333 339 340 309 329 333 332 218 275 294 325 330 283 171 199 1 91 359 308 306 338 127 216 189 161 203 140 63 51 97 179 189 115 43 160 166 193 183 152 160 199 201 180 178 183 188 164 182 210 186 168 215 228 269 307 290 227 178 149 147 162 170 221 326 124 203 233 273 270 229 198 188 195 212 213 217 222 221 219 214 210 208 205 202
341 331 326 327 331 333 330 308 317 321 291 287 293 310 323 323 167 168 268 51 56 329 256 309 324 210 279 167 139 217 17 16 74 101 27 161 123 358 242 189 192 161 147 206 216 143 173 195 198 183 173 222 224 144 146 184 228 64 47 33 133 137 139 143 159 155 143 243 226 193 188 247 263 234 175 188 195 214 220 216 217 218 219 217 213 210 205 201
340 328 320 321 325 326 321 312 305 292 289 300 312 322 331 124 148 163 17 95 13 308 214 312 300 266 302 96 89 33 5 343 28 33 34 124 112 10 216 181 170 154 141 250 248 232 226 220 198 182 199 232 177 144 148 150 144 101 105 99 96 106 114 118 132 103 91 268 256 193 187 225 265 215 162 186 202 218 221 213 211 215 217 217 216 212 205 197
338 324 313 314 320 318 316 311 297 289 308 316 327 335 83 124 142 345 58 47 331 287 218 286 311 321 287 212 1 29 226 245 23 19 88 110 70 49 59 140 133 166 157 293 254 246 271 33 179 193 211 193 118 130 150 146 151 146 114 103 98 95 88 76 56 59 80 264 263 187 188 207 272 242 168 184 207 224 223 212 201 204 211 213 214 213 206 195
333 317 305 304 308 302 303 306 300 312 315 324 341 38 128 106 357 93 56 8 297 297 300 301 320 345 165 232 295 48 183 202 38 187 156 142 161 93 124 200 135 179 196 213 240 247 246 181 196 210 168 127 107 106 139 148 152 161 142 131 119 95 93 89 68 79 225 236 5 176 189 197 237 250 170 211 255 271 245 218 196 196 203 205 206 209 204 197
326 306 294 292 290 277 266 279 299 309 315 330 10 104 149 314 27 76 1 347 329 326 343 312 326 340 329 214 231 279 145 124 54 188 157 155 209 177 222 229 192 229 234 217 227 253 230 198 179 121 134 140 126 108 119 144 151 174 176 164 164 143 164 185 186 219 230 207 59 163 186 197 239 266 326 298 289 285 265 239 205 194 200 201 200 203 198 194
321 296 285 280 276 273 275 285 296 304 314 340 62 92 82 92 77 302 265 317 345 351 339 284 316 327 273 173 186 246 65 57 306 193 133 109 254 217 204 190 208 250 299 291 292 313 224 157 124 133 145 169 158 135 147 167 173 186 179 180 198 178 173 202 201 227 244 177 89 156 181 217 252 262 358 346 327 311 289 257 215 189 195 200 195 197 193 189
318 292 279 275 273 276 281 284 288 294 306 3 116 97 92 113 116 201 244 271 279 304 328 288 322 336 124 106 297 239 140 34 19 149 128 170 210 291 116 139 181 222 232 213 268 323 225 161 154 161 161 185 181 168 170 166 167 178 169 220 235 202 202 216 201 211 182 121 117 149 178 240 253 126 68 13 354 348 334 291 223 189 190 195 190 190 187 187
320 291 275 271 271 275 273 271 274 273 279 62 76 51 121 159 264 212 244 267 279 304 305 173 331 340 77 11 341 311 197 43 45 62 43 74 141 32 13 44 189 203 211 203 171 230 262 236 179 353 166 181 179 164 157 148 140 117 39 300 264 245 229 42 93 147 115 118 144 170 212 281 220 141 85 11 3 7 3 346 239 196 190 190 189 185 182 187
328 296 272 267 275 284 265 256 239 212 196 39 45 64 110 235 234 176 208 290 313 308 305 339 32 18 25 15 28 24 1 41 38 43 57 29 309 13 310 321 186 202 224 247 164 201 290 58 78 10 118 186 186 152 154 150 133 122 137 241 249 322 266 128 80 82 138 206 176 183 234 273 202 181 38 6 3 5 3 360 335 205 190 189 189 181 176 186
338 313 271 310 353 334 257 201 178 169 122 57 78 78 266 240 192 181 213 295 299 301 316 16 31 5 4 353 38 6 351 52 50 279 97 348 284 7 298 296 182 213 242 244 218 252 271 314 40 49 129 186 236 156 153 148 138 143 178 208 174 2 263 212 157 146 198 233 184 185 235 278 278 218 9 359 354 353 351 350 344 235 189 190 191 184 181 184
341 340 88 42 11 359 167 152 150 151 97 55 77 173 241 225 193 206 223 286 255 259 34 67 1 342 312 228 55 357 330 178 161 144 114 43 277 163 291 280 199 234 252 236 209 143 252 286 82 137 152 68 132 152 145 145 170 147 164 173 160 216 222 215 204 186 198 235 218 183 225 291 314 321 348 347 343 341 338 336 330 267 196 197 197 188 179 180
340 345 102 28 1 0 135 145 135 109 72 48 246 142 223 253 250 224 204 190 223 222 334 226 304 354 211 337 50 1 341 153 144 118 138 66 77 188 277 298 237 326 353 249 202 137 259 307 89 83 31 74 144 160 163 169 164 86 123 148 155 240 222 248 246 209 208 221 220 190 196 150 102 332 331 330 331 332 330 326 319 287 221 206 203 191 177 182
351 351 163 358 356 31 141 142 110 63 71 344 250 143 190 258 265 244 207 197 222 232 43 200 200 313 273 5 11 348 31 64 123 111 165 219 151 195 241 292 296 333 4 10 125 155 226 333 11 22 47 163 148 124 193 171 150 148 168 171 183 196 224 253 227 265 258 218 202 240 228 112 76 346 318 318 328 332 329 322 314 295 248 213 208 199 183 186
355 10 171 345 357 121 144 132 61 71 116 176 232 199 206 239 267 292 242 185 216 268 45 173 189 301 281 122 67 214 83 56 61 108 144 184 205 199 131 71 279 297 297 128 86 339 260 81 339 338 85 114 76 41 352 358 58 72 159 181 200 188 197 228 212 188 263 264 257 261 261 97 61 337 316 322 332 336 333 328 328 327 292 210 200 202 187 191
297 21 153 356 6 153 148 51 74 52 189 188 262 223 250 292 253 301 337 166 212 217 78 130 200 204 195 167 44 94 121 57 31 57 121 115 259 239 71 314 259 239 255 233 58 344 334 79 5 312 21 37 42 32 22 79 82 76 67 49 241 179 171 233 239 190 189 210 88 275 276 118 59 334 328 335 341 346 349 352 1 7 14 56 72 89 130 157
4 322 299 358 12 174 151 48 149 287 221 200 314 230 208 259 227 253 312 260 247 178 129 153 229 214 79 236 193 111 99 70 30 330 304 262 240 222 277 314 261 193 165 184 200 229 178 67 20 325 309 27 101 105 117 114 96 80 54 30 353 249 185 235 292 286 209 175 131 229 229 129 65 344 349 1 3 12 17 20 26 30 35 48 50 52 73 95
332 290 274 338 332 188 197 219 177 206 268 306 317 267 218 211 211 210 240 243 196 172 171 153 206 184 67 39 128 89 58 178 153 317 284 140 85 152 6 342 253 198 183 156 175 182 174 99 2 262 228 155 140 147 149 106 55 49 27 3 343 297 182 178 254 260 224 163 263 253 232 111 59 5 27 28 25 33 35 36 42 46 50 63 72 73 83 100
306 244 250 338 11 124 166 325 153 164 252 314 311 310 287 221 215 220 217 193 141 168 164 133 178 153 99 97 101 72 36 38 119 306 252 202 304 327 7 356 326 186 74 59 70 87 136 133 215 233 223 191 168 150 109 23 2 357 359 354 353 7 163 161 166 211 213 177 198 262 155 121 108 36 41 33 33 42 41 42 50 55 64 76 84 84 85 90
329 325 278 343 36 58 79 34 10 166 136 128 273 319 275 224 282 277 197 159 146 148 77 93 149 132 88 93 97 67 29 17 67 115 71 308 302 321 339 345 14 87 90 74 59 50 115 89 323 266 127 141 146 92 15 262 357 3 356 357 8 28 138 173 179 216 190 151 162 280 138 144 147 94 55 37 38 44 37 33 39 48 55 53 47 50 58 61
349 344 345 353 30 50 83 85 27 70 124 162 234 353 267 256 292 259 188 177 170 153 64 50 115 166 209 164 122 96 31 5 30 85 45 311 295 305 303 317 23 54 76 61 22 16 109 77 345 43 96 118 133 125 115 109 86 42 11 8 23 40 61 88 64 332 115 156 176 179 160 148 135 105 68 44 44 50 39 22 18 32 41 35 26 36 51 59
353 351 34 345 292 214 87 22 4 23 152 187 230 274 305 288 250 196 168 71 302 160 145 178 145 231 232 181 140 127 113 52 32 35 325 258 280 321 344 67 13 342 323 43 25 27 106 92 340 43 102 122 131 123 113 106 95 67 44 35 34 44 58 66 58 19 302 277 169 160 163 145 123 109 68 55 55 51 44 24 22 40 51 45 32 38 50 52
356 14 65 342 299 271 297 314 325 303 184 181 213 226 279 271 263 261 201 150 192 259 150 214 217 208 216 170 128 134 179 167 125 250 232 179 28 325 77 110 31 4 17 76 60 12 103 102 252 116 102 106 115 112 114 122 107 81 57 48 51 58 65 68 65 61 58 75 120 143 150 129 113 91 60 65 60 49 42 29 31 43 50 53 51 48 55 56
348 342 349 336 302 280 290 299 297 268 182 179 200 188 202 221 265 325 287 206 199 185 175 199 196 166 189 198 151 159 194 192 153 153 185 181 183 213 208 215 178 71 48 51 50 336 205 129 186 198 99 98 93 80 80 138 111 90 73 57 58 68 74 76 71 60 68 102 124 138 138 129 122 67 65 69 60 47 36 27 31 38 40 47 50 48 52 57
336 300 333 317 308 335 322 315 321 275 223 197 189 159 177 199 183 317 276 234 205 201 196 185 165 128 159 214 177 165 179 179 152 149 170 180 193 199 199 240 208 141 51 56 31 352 44 138 158 197 162 158 164 357 351 13 116 100 79 48 29 51 79 80 81 69 91 126 143 148 138 135 152 114 82 73 66 55 34 20 23 30 36 42 43 45 51 53
352 303 316 290 285 356 346 326 324 250 241 210 171 191 234 230 233 276 277 246 205 237 235 178 158 134 159 193 186 179 179 174 149 136 157 145 68 147 147 88 136 44 45 125 88 10 147 151 148 192 196 170 161 316 330 317 258 221 65 25 359 85 109 111 115 112 102 138 166 162 129 120 133 120 94 77 71 59 37 20 12 19 35 43 40 42 49 51